Погода в Архангельске

Погода в Архангельске : погода сейчас, прогноз погоды и архив. Всё, что Вы хотите узнать о погоде в Архангельске!

Хотите узнать прогноз погоды в Архангельске? Тогда Вам сюда: Погода в Архангельске

Поиск расширенной информации на нашем сайте:

Другие новости

Новости СМИ2

Главная страница сайта

Новости сайта

03.07.2017

Напоминаем, что на нашем специализированном сайте Метеоцентр.Азия вы можете получить высокодетализированные автоматические прогнозы погоды по пунктам России, СНГ и мира в авиационном формате (включающие направление и скорость ветра, видимость, явления погоды, количество и форму облачности, нижнюю и верхнюю границу облачности).


Погода в Архангельске - сегодня

Время (UTC), дата Ветер
(°,м/с) 
Видим.   Явления Облачность Т
(°С)
Тd
(°С)
f(%) Тe
(°С)
Pmin
(гПа)
dP
(гПа)
Po
(мм)
O2
(г/м3)
Тmin Tmax R s Состояние
почвы
18 17.11.17 140 (ЮВ) 4900 м  слаб. ливневой снег  10/10 360 м кучево-дожд. 
[Cb cap]
-2.3 -2.7 97 -4  1001.2  -2.6  750  305           
21 17.11.17 130 (ЮВ) 6000 м  слаб. снег{ливн. осадки}  10/10 400 м 
[Ns]
-1.6 -1.7 99 -4  998.5  -2.6  748  303           
00 18.11.17 130 (ЮВ) 7000 м  слаб. снег{ливн. осадки}  10/10 400 м 
[Ns]
-0.5 -0.5 100 -2  995.9  -2.6  746  301           
03 18.11.17 200 (Ю) 17000 м  в посл. час снег  10/10 240 м 
[St]
+0.5 +0.5 100 994.5  -1.4  745  300  -2.4    равномерный
сухой снег
100% 
06 18.11.17 200 (Ю) 10 км  {снег}  9/9 630 м 
[Sc]
+0.9 +0.3 96 -1  994.3  -0.2  745  299           
09 18.11.17 220 (ЮЗ) 4000 м  слаб. ливневой снег  10/10 500 м кучево-дожд. 
[Cb cap]
+1 +0.2 94 -1  995.5  1.2  746  299           
12 18.11.17 210 (ЮЗ) 10 км  {ливн. осадки}  9/9 800 м 
[Sc]
+1.1 +0.1 93 996  0.5  746  299           
15 18.11.17 210 (ЮЗ) 22000 м    8/4 600 м средняя 
[Sc|Ac trans]
+1 -0.1 92 -1  996.9  0.9  747  300    +1.2  0.3     
18 18.11.17 210 (ЮЗ) 23000 м    9/9 1200 м 
[Sc]
+1 -0.3 91 -1  997.5  0.6  747  300           
21 18.11.17 220 (ЮЗ) 20000 м    9/9 450 м 
[Sc]
+0.9 -0.4 91 -1  998.4  0.9  748  300           
00 19.11.17 240 (ЮЗ) 21000 м    9/9 450 м 
[Sc]
+0.8 -0.8 89 -2  999.9  1.5  749  301           
03 19.11.17 260 (З) 18000 м  в посл. час ливневой снег  9/9 420 м кучево-дожд. 
[Cb cap]
+0.1 -0.5 96 -2  1002.2  2.3  751  302  +0.1    0.2  равномерный
сухой снег
100% 
06 19.11.17 250 (З) 10 км  {ливн. осадки}  8/3 600 м средняя 
[Sc|Ac trans]
-1.4 -1.6 99 -1  1004.5  2.3  753  305  -1.4         
09 19.11.17 тихо ()   10 км    9/9 1000 м 
[Sc]
-0.6 -1 97 -1  1006.8  2.2  754  305           
12 19.11.17 020 (С) 10 км    10/10 1000 м 
[Sc]
-0.7 -1.2 96 1008.2  1.4  755  305           
15 19.11.17 020 (С) 19000 м    10/10 540 м 
[Sc]
-1.5 -2 96 -1  1009.5  1.4  756  307    +0.1  0.0     
18 19.11.17 050 (СВ) 23000 м    9/4 600 м средняя 
[Sc|Ac As]
-2.2 -2.6 97 -2  1010.5  1.4  757  308           
21 19.11.17 110 (В) 21000 м    10/10 540 м 
[Sc]
-2.4 -2.4 100 -2  1011.8  1.3  758  308           
00 20.11.17 060 (СВ) 22000 м    9/3 600 м средняя 
[Sc|Ac As]
-4.4 -5.3 93 -7  1012.1  0.3  758  311           
03 20.11.17 060 (СВ) 23000 м    9/4 600 м средняя 
[Sc|Ac As]
-4.5 -5.5 93 -7  1011.9  -0.2  758  311  -4.5      равномерный
сухой снег
100% 
06 20.11.17 050 (СВ) 10 км    9/0 средняя 
[Ac As]
-6 -6.8 94 -9  1011.9  758  313  -6         
09 20.11.17 060 (СВ) 10 км    9/0 средняя, верхняя 
[Ac As|Ci sp]
-4.4 -6.9 83 -6  1012.1  0.2  758  311           
12 20.11.17 060 (СВ) 10 км    9/8 1170 м средняя 
[Sc|Ac As]
-5.1 -7.3 85 -7  1011.3  -0.8  758  312           
15 20.11.17 040 (СВ) 24000 м    9/0 средняя 
[Ac As]
-5.5 -7.5 86 -7  1011.5  0.2  758  312    -4.4       
18 20.11.17 030 (СВ) 25000 м    10/0 средняя 
[Ac und]
-5.6 -7.2 88 -8  1012  0.5  758  313           
Время (UTC), дата Ветер
(°,м/с) 
Видим.   Явления Облачность Т
(°С)
Тd
(°С)
f(%) Тe
(°С)
Pmin
(гПа)
dP
(гПа)
Po
(мм)
O2
(г/м3)
Тmin Tmax R s Состояние
почвы

Для получения пояснительной информации подведите курсор к названию столбца.

ПОГОДА в Архангельске - архив

Всё, что Вы хотите узнать о погоде в Архангельске - удобно и подробно!

Выберите нужную дату (начиная с 1 января 2015* года) и нажмите кнопку "Найти".
Будут отображены архивные сводки погоды по пункту Архангельск, начиная с указанной даты.


Отображать данные в формате CSV (для использования в таблицах Excel)


Внимание! Наш архив погоды предназначен исключительно для личного некоммерческого использования в познавательных целях. Если Вам необходимы официальные справки о состоянии погоды (для производственных, юридических, коммерческих и т.п. целей), обращайтесь в органы Росгидромета.

*Примечание: данная дата относится к архиву по метеостанциям СССР (Россия, СНГ, Балтия).
Архив по метеостанциям Зарубежной Европы и Азии (кроме Китая) хранится 10 дней, по другим регионам земного шара (Китай, Африка, Америка, Австралия, Океания) - 1 день.

Архангельск - район местоположения метеостанции


Название, широта, долгота, высота метеостанции:
Архангельск (город) 64.5°ш. 40.7°д. 8 м над ур. моря [Российская Федерация]

Дополнительная информация

В oтличие oт бoльшинства пoгoдных сайтoв мы публикуем пoдрoбную метеoинфoрмацию в детальнoм прoфессиoнальнoм фoрмате.

Характеристики температуры и влажнoсти вoздуха измеряются на высoте 2 м в тени вдали oт зданий и деревьев.
Скoрoсть ветра измеряется на высoте 10 м (на урoвне рoста челoвека скoрoсть ветра ниже в 1.5-2 раза). Если метеoстанция нахoдится в гoрoде или в лесу, тo скoрoсть ветра занижена на 2-4 м/с пo сравнению с oткрытым местoм. Скoрoсть ветра над акватoриями крупных рек и oзёр, а также на вершинах хoлмoв на 2-5 м/с выше, чем в oбычных услoвиях.
Атмoсфернoе давление в разных тoчках местнoсти мoжет значительнo oтличаться oт давления на метеoстанции, в зависимoсти oт услoвий рельефа (при пoдъёме на 10 м давление пoнижается примернo на 1 мм рт.ст.).